Flag for Guatemala Weather past 2 weeks in Guatemala, Guatemala

Now
70 °F

Scattered clouds.


Feels Like: 70 °F
Forecast: N/A
Wind: 12 mph from South

Location: Guatemala Aeropuertola Aurora

Current Time: Oct 20, 2014 at 4:59:08 PM

Latest Report: Oct 20, 2014 at 4:00 PM


Visibility: N/A

Pressure: 30.09 "Hg

Humidity: 78%

Dew point: 63 °F

Location of GuatemalaLocation

Historic Weather in Guatemala — Graph

°F

Guatemala temperature yesterday

Maximum temperature yesterday: 72 °F (at 12:00 PM)
Minimum temperature yesterday: 63 °F (at 3:00 AM)
Average temperature yesterday: 66 °F

Past Weeks' High & Low Weather Summary

 TemperatureHumidityPressure
High79 °F (Oct 6, 12:00 PM)100% (Oct 8, 10:00 PM)30.33 "Hg (Oct 8, 10:00 PM)
Low61 °F (Oct 6, 6:00 AM)48% (Oct 7, 12:00 PM)30.09 "Hg (Oct 20, 4:00 PM)
Average66 °F86%30.23 "Hg
* Reported Oct 5 4:00 PM — Oct 20 4:00 PM, Guatemala, Weather by CustomWeather, © 2014

Note: Actual official high and low records may vary slightly from our data, if they occured in-between our weather recording intervals... More about our weather records

Advertising

Guatemala weather history for previous 24 hours

 ConditionsComfort  
Time TempWeatherWind HumidityBarometerVisibility
4:00 PM
Oct 20
70 °FScattered clouds.12 mph78%30.09 "HgN/A
3:00 PM73 °FScattered clouds.16 mph69%30.12 "HgN/A
2:00 PM75 °FScattered clouds.12 mph65%30.12 "HgN/A
1:00 PM73 °FScattered clouds.9 mph69%30.18 "HgN/A
12:00 PM75 °FScattered clouds.7 mph61%30.21 "HgN/A
11:00 AM73 °FScattered clouds.7 mph69%30.24 "HgN/A
10:00 AM72 °FPartly sunny.7 mph73%30.24 "Hg5 mi
9:00 AM68 °FBroken clouds.7 mph83%30.27 "Hg5 mi
8:00 AM64 °FPartly sunny.No wind94%30.24 "Hg4 mi
7:00 AM63 °FFog.No wind100%30.24 "Hg2 mi
6:00 AM63 °FFog.No wind94%30.21 "Hg2 mi
4:00 AM63 °FFog.No wind94%30.18 "Hg2 mi
3:00 AM63 °FFog.No wind94%30.18 "Hg1 mi
2:00 AM63 °FFog.No wind94%30.18 "Hg0 mi
1:00 AM63 °FPassing clouds.No wind94%30.21 "HgN/A
12:00 AM64 °FPartly cloudy.5 mph94%30.24 "Hg4 mi
11:00 PM
Oct 19
64 °FPartly cloudy.5 mph94%30.24 "Hg4 mi
9:00 PM64 °FPartly cloudy.7 mph94%30.24 "Hg4 mi
8:00 PM64 °FPassing clouds.7 mph94%30.24 "Hg4 mi
7:00 PM64 °FPartly cloudy.No wind94%30.21 "Hg5 mi
6:00 PM66 °FPassing clouds.5 mph88%30.21 "HgN/A
5:00 PM66 °FDrizzle. Partly sunny.9 mph94%30.18 "HgN/A
4:00 PM66 °FDrizzle. Mostly cloudy.7 mph88%30.18 "HgN/A
Weather by CustomWeather, © 2014

See weather overviewHow to use our weather pages